Location: Recife
(8.0585°S, 34.8848°W)
Time: 10:51:59
(UTC-03:00)

Altair - Pass Details

Date: 23 April 2026
Orbit: 1501 x 1682 km, 47.2° (Epoch: 20 May)

Event Time Altitude Azimuth Distance (km) Brightness Sun altitude
Rises 21:37:11 0° 279° (W) 4,649 10.4 -64.8°
Enters shadow 21:40:02 - 269° (W) 3,963 9.9 -65.5°
Reaches altitude 10° 21:41:30 10° 262° (W) 3,657 - -65.9°
Maximum altitude 21:47:23 18° 221° (SW) 3,035 - -67.3°
Drops below altitude 10° 21:53:18 10° 180° (S) 3,664 - -68.7°
Sets 21:57:42 0° 162° (SSE) 4,663 - -69.8°
